| time (UTC) | temp F | wind direction | speed knots | gust knots | rain 1hr in | rain 24hr in | rain mn in | humidity % | barometer mb |
| 20260505034332 | 67 | 196 | 0.0 | 4.3 | 0.00 | 0.00 | 0.00 | 49 | 1009.6 |
| 20260505033339 | 67 | 180 | 0.9 | 4.3 | 0.00 | 0.00 | 0.00 | 49 | 1009.6 |
| 20260505032328 | 68 | 214 | 0.9 | 6.1 | 0.00 | 0.00 | 0.00 | 48 | 1009.5 |
| 20260505030141 | 69 | 188 | 0.0 | 4.3 | 0.00 | 0.00 | 0.00 | 47 | 1009.6 |
| 20260505025143 | 69 | 190 | 0.9 | 5.2 | 0.00 | 0.00 | 0.00 | 46 | 1009.5 |
| 20260505021944 | 70 | 215 | 0.9 | 6.1 | 0.00 | 0.00 | 0.00 | 44 | 1009.5 |
| 20260505020914 | 70 | 230 | 1.7 | 6.1 | 0.00 | 0.00 | 0.00 | 44 | 1009.4 |
| 20260505014752 | 71 | 186 | 1.7 | 4.3 | 0.00 | 0.00 | 0.00 | 43 | 1009.3 |
| 20260505013757 | 71 | 210 | 0.0 | 5.2 | 0.00 | 0.00 | 0.00 | 42 | 1009.2 |
| 20260505012735 | 71 | 191 | 0.9 | 5.2 | 0.00 | 0.00 | 0.00 | 42 | 1009.0 |
| 20260505011747 | 72 | 180 | 1.7 | 7.0 | 0.00 | 0.00 | 0.00 | 41 | 1009.0 |
| 20260505005712 | 72 | 192 | 0.0 | 3.5 | 0.00 | 0.00 | 0.00 | 41 | 1008.9 |
| 20260505004700 | 72 | 178 | 0.9 | 5.2 | 0.00 | 0.00 | 0.00 | 41 | 1008.8 |
| 20260505003657 | 73 | 196 | 0.9 | 5.2 | 0.00 | 0.00 | 0.00 | 40 | 1008.8 |
| 20260505002707 | 73 | 203 | 0.9 | 5.2 | 0.00 | 0.00 | 0.00 | 39 | 1008.6 |
| 20260505001654 | 74 | 189 | 1.7 | 6.1 | 0.00 | 0.00 | 0.00 | 39 | 1008.6 |
| 20260505000640 | 74 | 281 | 1.7 | 11.3 | 0.00 | 0.00 | 0.00 | 38 | 1008.6 |
| 20260504235607 | 74 | 169 | 1.7 | 14.8 | 0.00 | 0.00 | 0.00 | 38 | 1008.5 |
| 20260504234555 | 74 | 213 | 2.6 | 14.8 | 0.00 | 0.00 | 0.00 | 37 | 1008.6 |
| 20260504233537 | 75 | 230 | 2.6 | 7.8 | 0.00 | 0.00 | 0.00 | 36 | 1008.4 |
| 20260504232505 | 75 | 231 | 2.6 | 12.2 | 0.00 | 0.00 | 0.00 | 36 | 1008.4 |
| 20260504231448 | 75 | 165 | 4.3 | 12.2 | 0.00 | 0.00 | 0.00 | 35 | 1008.3 |
| 20260504230442 | 76 | 162 | 3.5 | 9.6 | 0.00 | 0.00 | 0.00 | 35 | 1008.3 |
| 20260504224320 | 76 | 156 | 2.6 | 13.0 | 0.00 | 0.00 | 0.00 | 34 | 1008.3 |
| 20260504223248 | 76 | 175 | 4.3 | 13.0 | 0.00 | 0.00 | 0.00 | 34 | 1008.4 |
| 20260504222308 | 76 | 218 | 4.3 | 10.4 | 0.00 | 0.00 | 0.00 | 33 | 1008.4 |
| 20260504220131 | 76 | 96 | 4.3 | 21.7 | 0.00 | 0.00 | 0.00 | 33 | 1008.2 |
| 20260504214012 | 76 | 263 | 7.0 | 19.1 | 0.00 | 0.00 | 0.00 | 33 | 1008.3 |
| 20260504212950 | 77 | 244 | 4.3 | 12.2 | 0.00 | 0.00 | 0.00 | 31 | 1008.3 |
| 20260504210854 | 79 | 163 | 4.3 | 10.4 | 0.00 | 0.00 | 0.00 | 30 | 1008.3 |
| 20260504205820 | 79 | 145 | 4.3 | 8.7 | 0.00 | 0.00 | 0.00 | 29 | 1008.2 |
| 20260504204800 | 79 | 184 | 3.5 | 12.2 | 0.00 | 0.00 | 0.00 | 30 | 1008.4 |
| 20260504203813 | 79 | 175 | 3.5 | 12.2 | 0.00 | 0.00 | 0.00 | 28 | 1008.4 |
| 20260504202812 | 79 | 189 | 3.5 | 11.3 | 0.00 | 0.00 | 0.00 | 29 | 1008.5 |
| 20260504201749 | 79 | 250 | 2.6 | 8.7 | 0.00 | 0.00 | 0.00 | 29 | 1008.7 |
| 20260504200801 | 79 | 186 | 2.6 | 7.8 | 0.00 | 0.00 | 0.00 | 30 | 1008.8 |
| 20260504194546 | 79 | 229 | 2.6 | 9.6 | 0.00 | 0.00 | 0.00 | 30 | 1009.0 |
| 20260504193540 | 77 | 244 | 3.5 | 11.3 | 0.00 | 0.00 | 0.00 | 30 | 1009.2 |
| 20260504192531 | 77 | 213 | 4.3 | 11.3 | 0.00 | 0.00 | 0.00 | 30 | 1009.3 |
| 20260504190407 | 78 | 166 | 3.5 | 10.4 | 0.00 | 0.00 | 0.00 | 32 | 1009.7 |
| 20260504185424 | 77 | 167 | 4.3 | 10.4 | 0.00 | 0.00 | 0.00 | 31 | 1010.0 |
| 20260504184412 | 78 | 157 | 3.5 | 8.7 | 0.00 | 0.00 | 0.00 | 30 | 1010.1 |
| 20260504183357 | 79 | 184 | 2.6 | 8.7 | 0.00 | 0.00 | 0.00 | 29 | 1010.2 |
| 20260504182343 | 79 | 227 | 3.5 | 12.2 | 0.00 | 0.00 | 0.00 | 30 | 1010.4 |
| 20260504180151 | 78 | 148 | 2.6 | 9.6 | 0.00 | 0.00 | 0.00 | 32 | 1010.8 |
| 20260504175209 | 77 | 268 | 3.5 | 9.6 | 0.00 | 0.00 | 0.00 | 31 | 1011.0 |
| 20260504174155 | 78 | 117 | 2.6 | 9.6 | 0.00 | 0.00 | 0.00 | 31 | 1011.1 |
| 20260504172101 | 76 | 254 | 2.6 | 7.8 | 0.00 | 0.00 | 0.00 | 33 | 1011.2 |
| 20260504171111 | 76 | 243 | 3.5 | 9.6 | 0.00 | 0.00 | 0.00 | 31 | 1011.5 |
| 20260504151016 | 74 | 136 | 2.6 | 7.8 | 0.00 | 0.00 | 0.00 | 29 | 1012.8 |
| 20260504140952 | 68 | 251 | 2.6 | 7.0 | 0.00 | 0.00 | 0.00 | 36 | 1013.1 |
| 20260504081528 | 52 | 211 | 0.0 | 3.5 | 0.00 | 0.00 | 0.00 | 60 | 1014.3 |
| 20260504080457 | 52 | 215 | 0.0 | 0.9 | 0.00 | 0.00 | 0.00 | 60 | 1014.4 |
| 20260504070402 | 53 | 191 | 0.0 | 0.0 | 0.00 | 0.00 | 0.00 | 54 | 1014.3 |
| 20260504050121 | 49 | 263 | 0.0 | 0.0 | 0.00 | 0.00 | 0.00 | 60 | 1014.7 |
| 20260504045105 | 49 | 263 | 0.0 | 0.0 | 0.00 | 0.00 | 0.00 | 60 | 1014.7 |
| 20260504044054 | 49 | 263 | 0.0 | 0.0 | 0.00 | 0.00 | 0.00 | 58 | 1014.8 |
| 20260504041943 | 49 | 263 | 0.0 | 0.0 | 0.00 | 0.00 | 0.00 | 58 | 1014.7 |
| 20260504040958 | 49 | 263 | 0.0 | 0.0 | 0.00 | 0.00 | 0.00 | 59 | 1014.6 |
| 20260504040000 | 48 | 263 | 0.0 | 0.0 | 0.00 | 0.00 | 0.00 | 58 | 1014.7 |